KTC091 VDPP-VVTS

Flight info

Callsign KTC091
Flight time 0h 42m
Altitude 23000
Route BAVET2 ELMOP R468 SAPEN/K0789F230 SAPEN2J
Aircraft A320/M-SDE3FGHIRWY/LB1

Departure

Time 2026-04-25 17:54
Airport Phnom Penh International Airport (VDPP)

Arrival

Time 2026-04-25 18:37
Airport Tan Son Nhat International Airport (VVTS)
Time Latitude Longitude Altitude Speed Heading
2026-04-25 17:11 11.55117 104.84432 63 ft 0 kts 316°
2026-04-25 17:44 11.55110 104.84439 64 ft 5 kts 316°
2026-04-25 17:44 11.55085 104.84463 57 ft 5 kts 317°
2026-04-25 17:45 11.55060 104.84486 56 ft 5 kts 320°
2026-04-25 17:45 11.55043 104.84500 57 ft 5 kts 323°
2026-04-25 17:45 11.55016 104.84516 57 ft 3 kts 348°
2026-04-25 17:45 11.55004 104.84517 61 ft 2 kts 15°
2026-04-25 17:46 11.54994 104.84513 59 ft 2 kts 37°
2026-04-25 17:46 11.54985 104.84506 62 ft 2 kts 44°
2026-04-25 17:46 11.54977 104.84498 60 ft 1 kts 46°
2026-04-25 17:50 11.54986 104.84507 61 ft 5 kts 46°
2026-04-25 17:50 11.55028 104.84554 62 ft 12 kts 52°
2026-04-25 17:50 11.54998 104.84628 59 ft 15 kts 133°
2026-04-25 17:51 11.54952 104.84726 63 ft 17 kts 58°
2026-04-25 17:51 11.55045 104.84823 61 ft 22 kts 48°
2026-04-25 17:51 11.55161 104.84951 59 ft 27 kts 41°
2026-04-25 17:51 11.55316 104.85097 64 ft 32 kts 46°
2026-04-25 17:52 11.55464 104.85267 59 ft 27 kts 46°
2026-04-25 17:52 11.55526 104.85328 58 ft 16 kts 57°
2026-04-25 17:52 11.55587 104.85379 56 ft 8 kts 245°
2026-04-25 17:52 11.55549 104.85346 60 ft 6 kts 225°
2026-04-25 17:53 11.55539 104.85335 63 ft 0 kts 225°
2026-04-25 17:53 11.55532 104.85328 57 ft 8 kts 225°
2026-04-25 17:53 11.55325 104.85115 62 ft 82 kts 224°
2026-04-25 17:53 11.54761 104.84531 60 ft 146 kts 226°
2026-04-25 17:54 11.53950 104.83694 371 ft 172 kts 223°
2026-04-25 17:54 11.53043 104.82974 1168 ft 163 kts 196°
2026-04-25 17:54 11.51944 104.82897 1941 ft 160 kts 175°
2026-04-25 17:54 11.50768 104.82933 2410 ft 177 kts 179°
2026-04-25 17:55 11.49490 104.82866 2830 ft 192 kts 185°
2026-04-25 17:55 11.48119 104.82661 3257 ft 206 kts 187°
2026-04-25 17:55 11.46631 104.82431 3617 ft 227 kts 187°
2026-04-25 17:55 11.44994 104.82206 4081 ft 247 kts 186°
2026-04-25 17:56 11.43225 104.81987 4653 ft 264 kts 185°
2026-04-25 17:56 11.41342 104.81773 5230 ft 280 kts 185°
2026-04-25 17:56 11.39372 104.81560 6046 ft 284 kts 185°
2026-04-25 17:56 11.37406 104.81346 6956 ft 287 kts 185°
2026-04-25 17:57 11.35399 104.81271 7740 ft 290 kts 168°
2026-04-25 17:57 11.33621 104.82099 8579 ft 287 kts 136°
2026-04-25 17:57 11.32524 104.83757 9459 ft 284 kts 109°
2026-04-25 17:57 11.32304 104.84400 9753 ft 284 kts 106°
2026-04-25 17:58 11.31487 104.87717 10772 ft 300 kts 104°
2026-04-25 17:58 11.30856 104.89807 11178 ft 317 kts 107°
2026-04-25 17:58 11.30128 104.91996 11544 ft 335 kts 108°
2026-04-25 17:58 11.29335 104.94292 11881 ft 352 kts 108°
2026-04-25 17:59 11.28502 104.96683 12304 ft 363 kts 108°
2026-04-25 17:59 11.27651 104.99128 12935 ft 368 kts 108°
2026-04-25 17:59 11.26801 105.01601 13617 ft 371 kts 108°
2026-04-25 17:59 11.25954 105.04098 14202 ft 375 kts 108°
2026-04-25 18:00 11.25105 105.06625 14759 ft 379 kts 108°
2026-04-25 18:00 11.24247 105.09183 15311 ft 383 kts 108°
2026-04-25 18:00 11.23574 105.11807 15869 ft 385 kts 98°
2026-04-25 18:00 11.23382 105.14539 16424 ft 388 kts 88°
2026-04-25 18:01 11.23556 105.17264 16940 ft 393 kts 85°
2026-04-25 18:01 11.23749 105.20059 17452 ft 398 kts 86°
2026-04-25 18:01 11.23937 105.22883 17954 ft 403 kts 86°
2026-04-25 18:01 11.24124 105.25753 18422 ft 408 kts 86°
2026-04-25 18:02 11.24311 105.28652 18889 ft 411 kts 86°
2026-04-25 18:02 11.24496 105.31568 19392 ft 414 kts 86°
2026-04-25 18:02 11.24683 105.34499 19894 ft 416 kts 86°
2026-04-25 18:02 11.24873 105.37447 20386 ft 418 kts 86°
2026-04-25 18:03 11.25066 105.40417 20861 ft 421 kts 85°
2026-04-25 18:03 11.25258 105.43400 21339 ft 423 kts 85°
2026-04-25 18:03 11.25452 105.46405 21794 ft 426 kts 85°
2026-04-25 18:03 11.25648 105.49420 22240 ft 428 kts 85°
2026-04-25 18:04 11.25797 105.52464 22669 ft 431 kts 90°
2026-04-25 18:04 11.25556 105.55479 22881 ft 434 kts 98°
2026-04-25 18:04 11.24814 105.58494 22928 ft 446 kts 108°
2026-04-25 18:04 11.23692 105.61483 22926 ft 454 kts 110°
2026-04-25 18:05 11.22552 105.64493 22930 ft 455 kts 110°
2026-04-25 18:05 11.21423 105.67504 22927 ft 456 kts 110°
2026-04-25 18:05 11.20299 105.70523 22925 ft 456 kts 110°
2026-04-25 18:05 11.19179 105.73539 22923 ft 456 kts 110°
2026-04-25 18:06 11.18058 105.76552 22929 ft 456 kts 110°
2026-04-25 18:06 11.16933 105.79575 22924 ft 456 kts 110°
2026-04-25 18:06 11.15810 105.82593 22925 ft 456 kts 110°
2026-04-25 18:06 11.14687 105.85611 22925 ft 455 kts 110°
2026-04-25 18:07 11.13564 105.88627 22919 ft 456 kts 110°
2026-04-25 18:07 11.12437 105.91643 22920 ft 456 kts 110°
2026-04-25 18:07 11.11308 105.94656 22921 ft 456 kts 110°
2026-04-25 18:07 11.10167 105.97668 22913 ft 456 kts 110°
2026-04-25 18:08 11.08999 106.00672 22913 ft 456 kts 111°
2026-04-25 18:08 11.07832 106.03620 22913 ft 455 kts 111°
2026-04-25 18:08 11.06646 106.06594 22919 ft 437 kts 111°
2026-04-25 18:08 11.05504 106.09457 22925 ft 435 kts 111°
2026-04-25 18:09 11.04391 106.12276 22920 ft 435 kts 109°
2026-04-25 18:09 11.03608 106.15244 22927 ft 433 kts 98°
2026-04-25 18:09 11.03441 106.18295 22925 ft 432 kts 86°
2026-04-25 18:09 11.03523 106.19324 22925 ft 432 kts 82°
2026-04-25 18:10 11.04896 106.24182 22928 ft 431 kts 64°
2026-04-25 18:10 11.06226 106.26916 22920 ft 431 kts 63°
2026-04-25 18:10 11.07565 106.29647 22916 ft 430 kts 63°
2026-04-25 18:10 11.08902 106.32364 22122 ft 431 kts 63°
2026-04-25 18:11 11.10253 106.35108 21112 ft 436 kts 63°
2026-04-25 18:11 11.11617 106.37888 20114 ft 441 kts 63°
2026-04-25 18:11 11.12994 106.40696 19206 ft 445 kts 63°
2026-04-25 18:11 11.14357 106.43479 18218 ft 434 kts 64°
2026-04-25 18:12 11.15699 106.46215 16870 ft 429 kts 63°
2026-04-25 18:12 11.17019 106.48908 15694 ft 421 kts 63°
2026-04-25 18:12 11.18312 106.51548 14597 ft 413 kts 63°
2026-04-25 18:12 11.19581 106.54139 13527 ft 405 kts 63°
2026-04-25 18:13 11.20825 106.56676 12346 ft 397 kts 63°
2026-04-25 18:13 11.22019 106.59109 11766 ft 377 kts 63°
2026-04-25 18:13 11.23144 106.61407 11575 ft 347 kts 63°
2026-04-25 18:14 11.25147 106.65492 11150 ft 303 kts 63°
2026-04-25 18:14 11.26079 106.67392 10571 ft 298 kts 63°
2026-04-25 18:14 11.27001 106.69273 10007 ft 293 kts 64°
2026-04-25 18:14 11.27905 106.71117 9621 ft 291 kts 64°
2026-04-25 18:15 11.28635 106.73034 9200 ft 290 kts 77°
2026-04-25 18:15 11.28841 106.75066 8803 ft 288 kts 92°
2026-04-25 18:15 11.28696 106.77093 8421 ft 286 kts 94°
2026-04-25 18:15 11.28552 106.79107 8030 ft 284 kts 94°
2026-04-25 18:16 11.28415 106.81104 7649 ft 282 kts 94°
2026-04-25 18:16 11.28281 106.83093 7275 ft 280 kts 94°
2026-04-25 18:16 11.28013 106.87041 7012 ft 280 kts 94°
2026-04-25 18:17 11.27877 106.89015 7012 ft 280 kts 94°
2026-04-25 18:17 11.27741 106.90989 7013 ft 279 kts 94°
2026-04-25 18:17 11.27651 106.92297 7015 ft 280 kts 94°
2026-04-25 18:17 11.27468 106.94946 7013 ft 280 kts 94°
2026-04-25 18:18 11.27141 106.96896 7011 ft 280 kts 107°
2026-04-25 18:18 11.26741 106.98134 7008 ft 274 kts 108°
2026-04-25 18:18 11.26165 106.99916 7015 ft 256 kts 108°
2026-04-25 18:18 11.25632 107.01581 7013 ft 238 kts 107°
2026-04-25 18:19 11.25128 107.03159 7015 ft 235 kts 108°
2026-04-25 18:19 11.24457 107.05253 7015 ft 235 kts 108°
2026-04-25 18:19 11.24076 107.06309 7009 ft 235 kts 114°
2026-04-25 18:19 11.23249 107.07744 7019 ft 235 kts 125°
2026-04-25 18:20 11.22299 107.09101 7018 ft 235 kts 124°
2026-04-25 18:20 11.21351 107.10463 6971 ft 235 kts 124°
2026-04-25 18:20 11.20434 107.11787 6853 ft 227 kts 124°
2026-04-25 18:20 11.19543 107.13072 6739 ft 218 kts 124°
2026-04-25 18:21 11.18687 107.14311 6598 ft 210 kts 124°
2026-04-25 18:21 11.17833 107.15467 6508 ft 198 kts 130°
2026-04-25 18:21 11.16863 107.16401 6394 ft 187 kts 140°
2026-04-25 18:21 11.15884 107.17214 6260 ft 176 kts 139°
2026-04-25 18:22 11.14962 107.17984 6147 ft 166 kts 139°
2026-04-25 18:22 11.14369 107.18475 6070 ft 166 kts 142°
2026-04-25 18:22 11.12989 107.19162 5896 ft 166 kts 163°
2026-04-25 18:22 11.11850 107.19316 5775 ft 165 kts 179°
2026-04-25 18:23 11.10711 107.19156 5646 ft 165 kts 194°
2026-04-25 18:23 11.09657 107.18695 5531 ft 165 kts 210°
2026-04-25 18:23 11.08769 107.17971 5407 ft 166 kts 225°
2026-04-25 18:23 11.08082 107.17020 5293 ft 168 kts 236°
2026-04-25 18:24 11.07454 107.16016 5174 ft 168 kts 235°
2026-04-25 18:24 11.06825 107.15019 5050 ft 167 kts 236°
2026-04-25 18:24 11.06195 107.14019 4932 ft 168 kts 236°
2026-04-25 18:24 11.05568 107.13020 4814 ft 168 kts 235°
2026-04-25 18:25 11.04940 107.12022 4697 ft 167 kts 235°
2026-04-25 18:25 11.04312 107.11028 4571 ft 167 kts 235°
2026-04-25 18:25 11.03683 107.10033 4450 ft 167 kts 235°
2026-04-25 18:25 11.03055 107.09037 4324 ft 167 kts 235°
2026-04-25 18:26 11.02426 107.08036 4203 ft 167 kts 235°
2026-04-25 18:26 11.01799 107.07039 4082 ft 167 kts 234°
2026-04-25 18:26 11.01173 107.06044 3960 ft 167 kts 235°
2026-04-25 18:26 11.00546 107.05048 3841 ft 167 kts 235°
2026-04-25 18:27 10.99919 107.04053 3716 ft 167 kts 234°
2026-04-25 18:27 10.99298 107.03070 3592 ft 166 kts 234°
2026-04-25 18:27 10.98672 107.02079 3476 ft 166 kts 234°
2026-04-25 18:27 10.98045 107.01088 3363 ft 167 kts 234°
2026-04-25 18:28 10.97418 107.00094 3249 ft 167 kts 234°
2026-04-25 18:28 10.96794 106.99106 3126 ft 164 kts 234°
2026-04-25 18:28 10.96189 106.98142 3079 ft 161 kts 234°
2026-04-25 18:29 10.94982 106.96224 3013 ft 160 kts 234°
2026-04-25 18:29 10.94380 106.95269 3001 ft 161 kts 234°
2026-04-25 18:30 10.92569 106.92395 2998 ft 162 kts 233°
2026-04-25 18:30 10.91963 106.91433 3009 ft 161 kts 234°
2026-04-25 18:30 10.91360 106.90474 3006 ft 161 kts 234°
2026-04-25 18:30 10.90907 106.89426 2973 ft 164 kts 259°
2026-04-25 18:31 10.90698 106.88298 3017 ft 163 kts 251°
2026-04-25 18:31 10.90330 106.87196 3008 ft 162 kts 247°
2026-04-25 18:31 10.89944 106.86131 3006 ft 163 kts 246°
2026-04-25 18:31 10.89543 106.85048 3004 ft 164 kts 246°
2026-04-25 18:32 10.89137 106.83964 3009 ft 163 kts 246°
2026-04-25 18:32 10.88734 106.82892 3006 ft 162 kts 246°
2026-04-25 18:32 10.88330 106.81818 2985 ft 163 kts 246°
2026-04-25 18:32 10.87924 106.80742 2865 ft 163 kts 246°
2026-04-25 18:33 10.87520 106.79668 2687 ft 163 kts 245°
2026-04-25 18:33 10.87114 106.78593 2495 ft 162 kts 246°
2026-04-25 18:33 10.86710 106.77521 2292 ft 162 kts 246°
2026-04-25 18:33 10.86308 106.76453 2087 ft 161 kts 245°
2026-04-25 18:34 10.85907 106.75389 1884 ft 160 kts 245°
2026-04-25 18:34 10.85508 106.74332 1681 ft 159 kts 244°
2026-04-25 18:34 10.85114 106.73287 1473 ft 156 kts 245°
2026-04-25 18:34 10.84724 106.72254 1265 ft 155 kts 245°
2026-04-25 18:35 10.84344 106.71245 1063 ft 154 kts 245°
2026-04-25 18:35 10.83962 106.70232 880 ft 153 kts 245°
2026-04-25 18:35 10.83583 106.69228 679 ft 151 kts 247°
2026-04-25 18:35 10.83208 106.68236 482 ft 151 kts 246°
2026-04-25 18:36 10.82831 106.67236 292 ft 151 kts 246°
2026-04-25 18:36 10.82459 106.66242 85 ft 150 kts 247°
2026-04-25 18:36 10.82107 106.65314 36 ft 116 kts 252°
2026-04-25 18:36 10.81877 106.64717 34 ft 66 kts 249°
2026-04-25 18:37 10.81763 106.64446 33 ft 25 kts 233°
2026-04-25 18:37 10.81632 106.64326 32 ft 25 kts 198°
2026-04-25 18:37 10.81493 106.64311 32 ft 9 kts 168°
2026-04-25 18:37 10.81459 106.64321 33 ft 4 kts 163°
2026-04-25 18:38 10.81422 106.64336 33 ft 9 kts 158°
2026-04-25 18:38 10.81334 106.64372 32 ft 18 kts 158°
2026-04-25 18:38 10.81230 106.64453 33 ft 19 kts 97°
2026-04-25 18:38 10.81209 106.64592 33 ft 20 kts 99°
2026-04-25 18:39 10.81241 106.64726 34 ft 20 kts 69°
2026-04-25 18:39 10.81290 106.64861 32 ft 20 kts 69°
2026-04-25 18:39 10.81341 106.64997 35 ft 21 kts 69°
2026-04-25 18:39 10.81394 106.65134 34 ft 21 kts 69°
2026-04-25 18:40 10.81446 106.65272 36 ft 21 kts 70°
2026-04-25 18:40 10.81498 106.65412 36 ft 21 kts 69°
2026-04-25 18:40 10.81551 106.65554 36 ft 21 kts 69°
2026-04-25 18:40 10.81604 106.65696 37 ft 22 kts 67°
2026-04-25 18:41 10.81658 106.65839 37 ft 22 kts 67°
2026-04-25 18:41 10.81713 106.65982 37 ft 22 kts 70°
2026-04-25 18:41 10.81739 106.66079 39 ft 4 kts 149°
2026-04-25 18:41 10.81709 106.66064 39 ft 5 kts 210°
2026-04-25 18:42 10.81674 106.66052 39 ft 7 kts 182°
2026-04-25 18:42 10.81657 106.66051 39 ft 8 kts 182°
2026-04-25 18:42 10.81537 106.66070 38 ft 13 kts 214°
2026-04-25 18:42 10.81474 106.66038 36 ft 8 kts 139°
2026-04-25 18:43 10.81466 106.66093 38 ft 4 kts 95°
2026-04-25 18:43 10.81465 106.66107 39 ft 2 kts 95°
2026-04-25 18:43 10.81463 106.66127 39 ft 3 kts 95°
2026-04-25 18:43 10.81463 106.66134 39 ft 0 kts 95°
2026-04-25 18:44 10.81463 106.66136 39 ft 0 kts 95°